Year,Month,Day,Hour,Minute,Value (Times are PST for temperature in C)
2015,09,28,00,00,9.30
2015,09,28,00,01,9.30
2015,09,28,00,02,9.40
2015,09,28,00,03,9.40
2015,09,28,00,04,9.50
2015,09,28,00,05,9.50
2015,09,28,00,06,9.60
2015,09,28,00,07,9.60
2015,09,28,00,08,9.60
2015,09,28,00,09,9.60
2015,09,28,00,10,9.60
2015,09,28,00,11,9.70
2015,09,28,00,12,9.70
2015,09,28,00,13,9.70
2015,09,28,00,14,9.80
2015,09,28,00,15,9.80
2015,09,28,00,16,9.90
2015,09,28,00,17,9.90
2015,09,28,00,18,9.90
2015,09,28,00,19,9.90
2015,09,28,00,20,10.00
2015,09,28,00,21,10.00
2015,09,28,00,22,10.00
2015,09,28,00,23,10.00
2015,09,28,00,24,10.00
2015,09,28,00,25,10.00
2015,09,28,00,26,10.00
2015,09,28,00,27,10.10
2015,09,28,00,28,10.10
2015,09,28,00,29,10.10
2015,09,28,00,30,10.10
2015,09,28,00,31,10.20
2015,09,28,00,32,10.20
2015,09,28,00,33,10.30
2015,09,28,00,34,10.30
2015,09,28,00,35,10.30
2015,09,28,00,36,10.30
2015,09,28,00,37,10.30
2015,09,28,00,38,10.30
2015,09,28,00,39,10.30
2015,09,28,00,40,10.30
2015,09,28,00,41,10.30
2015,09,28,00,42,10.30
2015,09,28,00,43,10.30
2015,09,28,00,44,10.30
2015,09,28,00,45,10.30
2015,09,28,00,46,10.30
2015,09,28,00,47,10.20
2015,09,28,00,48,10.20
2015,09,28,00,49,10.20
2015,09,28,00,50,10.20
2015,09,28,00,51,10.20
2015,09,28,00,52,10.10
2015,09,28,00,53,10.10
2015,09,28,00,54,10.10
2015,09,28,00,55,10.10
2015,09,28,00,56,10.10
2015,09,28,00,57,10.10
2015,09,28,00,58,10.10
2015,09,28,00,59,10.10
2015,09,28,01,00,10.10
2015,09,28,01,01,10.10
2015,09,28,01,02,10.10
2015,09,28,01,03,10.00
2015,09,28,01,04,10.00
2015,09,28,01,05,9.90
2015,09,28,01,06,9.90
2015,09,28,01,07,9.80
2015,09,28,01,08,9.80
2015,09,28,01,09,9.70
2015,09,28,01,10,9.70
2015,09,28,01,11,9.60
2015,09,28,01,12,9.60
2015,09,28,01,13,9.50
2015,09,28,01,14,9.50
2015,09,28,01,15,9.40
2015,09,28,01,16,9.30
2015,09,28,01,17,9.30
2015,09,28,01,18,9.30
2015,09,28,01,19,9.30
2015,09,28,01,20,9.30
2015,09,28,01,21,9.30
2015,09,28,01,22,9.30
2015,09,28,01,23,9.30
2015,09,28,01,24,9.30
2015,09,28,01,25,9.30
2015,09,28,01,26,9.30
2015,09,28,01,27,9.30
2015,09,28,01,28,9.30
2015,09,28,01,29,9.40
2015,09,28,01,30,9.40
2015,09,28,01,31,9.40
2015,09,28,01,32,9.40
2015,09,28,01,33,9.40
2015,09,28,01,34,9.30
2015,09,28,01,35,9.30
2015,09,28,01,36,9.30
2015,09,28,01,37,9.30
2015,09,28,01,38,9.30
2015,09,28,01,39,9.30
2015,09,28,01,40,9.30
2015,09,28,01,41,9.30
2015,09,28,01,42,9.30
2015,09,28,01,43,9.30
2015,09,28,01,44,9.30
2015,09,28,01,45,9.30
2015,09,28,01,46,9.40
2015,09,28,01,47,9.40
2015,09,28,01,48,9.40
2015,09,28,01,49,9.40
2015,09,28,01,50,9.40
2015,09,28,01,51,9.40
2015,09,28,01,52,9.40
2015,09,28,01,53,9.40
2015,09,28,01,54,9.40
2015,09,28,01,55,9.40
2015,09,28,01,56,9.50
2015,09,28,01,57,9.50
2015,09,28,01,58,9.60
2015,09,28,01,59,9.60
2015,09,28,02,00,9.60
2015,09,28,02,01,9.60
2015,09,28,02,02,9.50
2015,09,28,02,03,9.50
2015,09,28,02,04,9.50
2015,09,28,02,05,9.40
2015,09,28,02,06,9.40
2015,09,28,02,07,9.40
2015,09,28,02,08,9.40
2015,09,28,02,09,9.40
2015,09,28,02,10,9.40
2015,09,28,02,11,9.40
2015,09,28,02,12,9.40
2015,09,28,02,13,9.40
2015,09,28,02,14,9.40
2015,09,28,02,15,9.40
2015,09,28,02,16,9.40
2015,09,28,02,17,9.40
2015,09,28,02,18,9.50
2015,09,28,02,19,9.50
2015,09,28,02,20,9.60
2015,09,28,02,21,9.60
2015,09,28,02,22,9.60
2015,09,28,02,23,9.60
2015,09,28,02,24,9.60
2015,09,28,02,25,9.60
2015,09,28,02,26,9.50
2015,09,28,02,27,9.50
2015,09,28,02,28,9.40
2015,09,28,02,29,9.40
2015,09,28,02,30,9.40
2015,09,28,02,31,9.40
2015,09,28,02,32,9.40
2015,09,28,02,33,9.30
2015,09,28,02,34,9.30
2015,09,28,02,35,9.30
2015,09,28,02,36,9.30
2015,09,28,02,37,9.30
2015,09,28,02,38,9.30
2015,09,28,02,39,9.30
2015,09,28,02,40,9.30
2015,09,28,02,41,9.30
2015,09,28,02,42,9.30
2015,09,28,02,43,9.30
2015,09,28,02,44,9.30
2015,09,28,02,45,9.30
2015,09,28,02,46,9.30
2015,09,28,02,47,9.30
2015,09,28,02,48,9.30
2015,09,28,02,49,9.30
2015,09,28,02,50,9.30
2015,09,28,02,51,9.30
2015,09,28,02,52,9.30
2015,09,28,02,53,9.30
2015,09,28,02,54,9.30
2015,09,28,02,55,9.30
2015,09,28,02,56,9.20
2015,09,28,02,57,9.20
2015,09,28,02,58,9.20
2015,09,28,02,59,9.20
2015,09,28,03,00,9.10
2015,09,28,03,01,9.10
2015,09,28,03,02,9.00
2015,09,28,03,03,9.00
2015,09,28,03,04,8.90
2015,09,28,03,05,8.90
2015,09,28,03,06,8.90
2015,09,28,03,07,8.80
2015,09,28,03,08,8.80
2015,09,28,03,09,8.80
2015,09,28,03,10,8.80
2015,09,28,03,11,8.80
2015,09,28,03,12,8.80
2015,09,28,03,13,8.80
2015,09,28,03,14,8.80
2015,09,28,03,15,8.70
2015,09,28,03,16,8.70
2015,09,28,03,17,8.70
2015,09,28,03,18,8.70
2015,09,28,03,19,8.70
2015,09,28,03,20,8.70
2015,09,28,03,21,8.70
2015,09,28,03,22,8.70
2015,09,28,03,23,8.70
2015,09,28,03,24,8.70
2015,09,28,03,25,8.70
2015,09,28,03,26,8.70
2015,09,28,03,27,8.70
2015,09,28,03,28,8.80
2015,09,28,03,29,8.80
2015,09,28,03,30,8.90
2015,09,28,03,31,8.90
2015,09,28,03,32,9.00
2015,09,28,03,33,9.10
2015,09,28,03,34,9.10
2015,09,28,03,35,9.10
2015,09,28,03,36,9.10
2015,09,28,03,37,9.10
2015,09,28,03,38,9.10
2015,09,28,03,39,9.00
2015,09,28,03,40,9.00
2015,09,28,03,41,9.00
2015,09,28,03,42,9.00
2015,09,28,03,43,8.90
2015,09,28,03,44,8.90
2015,09,28,03,45,9.00
2015,09,28,03,46,9.00
2015,09,28,03,47,9.00
2015,09,28,03,48,9.00
2015,09,28,03,49,9.00
2015,09,28,03,50,9.00
2015,09,28,03,51,9.00
2015,09,28,03,52,9.00
2015,09,28,03,53,9.00
2015,09,28,03,54,9.00
2015,09,28,03,55,9.00
2015,09,28,03,56,8.90
2015,09,28,03,57,8.90
2015,09,28,03,58,8.90
2015,09,28,03,59,8.90
2015,09,28,04,00,8.90
2015,09,28,04,01,8.90
2015,09,28,04,02,8.80
2015,09,28,04,03,8.80
2015,09,28,04,04,8.80
2015,09,28,04,05,8.80
2015,09,28,04,06,8.70
2015,09,28,04,07,8.60
2015,09,28,04,08,8.60
2015,09,28,04,09,8.60
2015,09,28,04,10,8.50
2015,09,28,04,11,8.40
2015,09,28,04,12,8.40
2015,09,28,04,13,8.40
2015,09,28,04,14,8.40
2015,09,28,04,15,8.40
2015,09,28,04,16,8.40
2015,09,28,04,17,8.40
2015,09,28,04,18,8.50
2015,09,28,04,19,8.50
2015,09,28,04,20,8.60
2015,09,28,04,21,8.60
2015,09,28,04,22,8.60
2015,09,28,04,23,8.60
2015,09,28,04,24,8.60
2015,09,28,04,25,8.60
2015,09,28,04,26,8.60
2015,09,28,04,27,8.50
2015,09,28,04,28,8.50
2015,09,28,04,29,8.40
2015,09,28,04,30,8.40
2015,09,28,04,31,8.40
2015,09,28,04,32,8.40
2015,09,28,04,33,8.50
2015,09,28,04,34,8.50
2015,09,28,04,35,8.50
2015,09,28,04,36,8.50
2015,09,28,04,37,8.50
2015,09,28,04,38,8.50
2015,09,28,04,39,8.50
2015,09,28,04,40,8.40
2015,09,28,04,41,8.40
2015,09,28,04,42,8.40
2015,09,28,04,43,8.30
2015,09,28,04,44,8.30
2015,09,28,04,45,8.30
2015,09,28,04,46,8.30
2015,09,28,04,47,8.30
2015,09,28,04,48,8.30
2015,09,28,04,49,8.30
2015,09,28,04,50,8.30
2015,09,28,04,51,8.30
2015,09,28,04,52,8.20
2015,09,28,04,53,8.20
2015,09,28,04,54,8.20
2015,09,28,04,55,8.10
2015,09,28,04,56,8.10
2015,09,28,04,57,8.10
2015,09,28,04,58,8.10
2015,09,28,04,59,8.10
2015,09,28,05,00,8.10
2015,09,28,05,01,8.10
2015,09,28,05,02,8.00
2015,09,28,05,03,8.00
2015,09,28,05,04,7.90
2015,09,28,05,05,7.80
2015,09,28,05,06,7.80
2015,09,28,05,07,7.80
2015,09,28,05,08,7.80
2015,09,28,05,09,7.80
2015,09,28,05,10,7.80
2015,09,28,05,11,7.80
2015,09,28,05,12,7.80
2015,09,28,05,13,7.80
2015,09,28,05,14,7.80
2015,09,28,05,15,7.80
2015,09,28,05,16,7.70
2015,09,28,05,17,7.70
2015,09,28,05,18,7.70
2015,09,28,05,19,7.70
2015,09,28,05,20,7.70
2015,09,28,05,21,7.70
2015,09,28,05,22,7.60
2015,09,28,05,23,7.60
2015,09,28,05,24,7.60
2015,09,28,05,25,7.60
2015,09,28,05,26,7.60
2015,09,28,05,27,7.60
2015,09,28,05,28,7.60
2015,09,28,05,29,7.60
2015,09,28,05,30,7.60
2015,09,28,05,31,7.70
2015,09,28,05,32,7.70
2015,09,28,05,33,7.70
2015,09,28,05,34,7.70
2015,09,28,05,35,7.70
2015,09,28,05,36,7.70
2015,09,28,05,37,7.70
2015,09,28,05,38,7.70
2015,09,28,05,39,7.70
2015,09,28,05,40,7.70
2015,09,28,05,41,7.70
2015,09,28,05,42,7.70
2015,09,28,05,43,7.70
2015,09,28,05,44,7.70
2015,09,28,05,45,7.70
2015,09,28,05,46,7.70
2015,09,28,05,47,7.70
2015,09,28,05,48,7.70
2015,09,28,05,49,7.70
2015,09,28,05,50,7.70
2015,09,28,05,51,7.70
2015,09,28,05,52,7.70
2015,09,28,05,53,7.70
2015,09,28,05,54,7.70
2015,09,28,05,55,7.70
2015,09,28,05,56,7.70
2015,09,28,05,57,7.70
2015,09,28,05,58,7.70
2015,09,28,05,59,7.70
2015,09,28,06,00,7.70
2015,09,28,06,01,7.70
2015,09,28,06,02,7.70
2015,09,28,06,03,7.70
2015,09,28,06,04,7.70
2015,09,28,06,05,7.70
2015,09,28,06,06,7.70
2015,09,28,06,07,7.70
2015,09,28,06,08,7.70
2015,09,28,06,09,7.80
2015,09,28,06,10,7.80
2015,09,28,06,11,7.80
2015,09,28,06,12,7.80
2015,09,28,06,13,7.90
2015,09,28,06,14,7.90
2015,09,28,06,15,8.00
2015,09,28,06,16,8.00
2015,09,28,06,17,8.00
2015,09,28,06,18,7.90
2015,09,28,06,19,7.90
2015,09,28,06,20,7.90
2015,09,28,06,21,7.90
2015,09,28,06,22,7.90
2015,09,28,06,23,7.90
2015,09,28,06,24,7.80
2015,09,28,06,25,7.70
2015,09,28,06,26,7.70
2015,09,28,06,27,7.60
2015,09,28,06,28,7.50
2015,09,28,06,29,7.50
2015,09,28,06,30,7.30
2015,09,28,06,31,7.30
2015,09,28,06,32,7.20
2015,09,28,06,33,7.20
2015,09,28,06,34,7.20
2015,09,28,06,35,7.20
2015,09,28,06,36,7.20
2015,09,28,06,37,7.20
2015,09,28,06,38,7.20
2015,09,28,06,39,7.10
2015,09,28,06,40,7.10
2015,09,28,06,41,7.10
2015,09,28,06,42,7.10
2015,09,28,06,43,7.10
2015,09,28,06,44,7.10
2015,09,28,06,45,7.10
2015,09,28,06,46,7.10
2015,09,28,06,47,7.10
2015,09,28,06,48,7.10
2015,09,28,06,49,7.20
2015,09,28,06,50,7.20
2015,09,28,06,51,7.20
2015,09,28,06,52,7.20
2015,09,28,06,53,7.20
2015,09,28,06,54,7.20
2015,09,28,06,55,7.20
2015,09,28,06,56,7.20
2015,09,28,06,57,7.20
2015,09,28,06,58,7.20
2015,09,28,06,59,7.20
2015,09,28,07,00,7.20
2015,09,28,07,01,7.20
2015,09,28,07,02,7.10
2015,09,28,07,03,7.10
2015,09,28,07,04,7.10
2015,09,28,07,05,7.00
2015,09,28,07,06,7.00
2015,09,28,07,07,7.00
2015,09,28,07,08,7.00
2015,09,28,07,09,7.00
2015,09,28,07,10,7.00
2015,09,28,07,11,6.90
2015,09,28,07,12,6.90
2015,09,28,07,13,7.00
2015,09,28,07,14,7.00
2015,09,28,07,15,7.10
2015,09,28,07,16,7.10
2015,09,28,07,17,7.10
2015,09,28,07,18,7.00
2015,09,28,07,19,7.00
2015,09,28,07,20,6.90
2015,09,28,07,21,6.90
2015,09,28,07,22,6.90
2015,09,28,07,23,6.90
2015,09,28,07,24,7.00
2015,09,28,07,25,7.10
2015,09,28,07,26,7.10
2015,09,28,07,27,7.20
2015,09,28,07,28,7.20
2015,09,28,07,29,7.20
2015,09,28,07,30,7.30
2015,09,28,07,31,7.40
2015,09,28,07,32,7.40
2015,09,28,07,33,7.50
2015,09,28,07,34,7.50
2015,09,28,07,35,7.50
2015,09,28,07,36,7.40
2015,09,28,07,37,7.40
2015,09,28,07,38,7.50
2015,09,28,07,39,7.70
2015,09,28,07,40,7.90
2015,09,28,07,41,7.90
2015,09,28,07,42,8.00
2015,09,28,07,43,8.10
2015,09,28,07,44,8.20
2015,09,28,07,45,8.30
2015,09,28,07,46,8.30
2015,09,28,07,47,8.40
2015,09,28,07,48,8.50
2015,09,28,07,49,8.60
2015,09,28,07,50,8.60
2015,09,28,07,51,8.60
2015,09,28,07,52,8.70
2015,09,28,07,53,8.70
2015,09,28,07,54,8.70
2015,09,28,07,55,8.70
2015,09,28,07,56,8.70
2015,09,28,07,57,8.80
2015,09,28,07,58,8.80
2015,09,28,07,59,8.80
2015,09,28,08,00,8.90
2015,09,28,08,01,8.90
2015,09,28,08,02,8.90
2015,09,28,08,03,9.00
2015,09,28,08,04,9.10
2015,09,28,08,05,9.10
2015,09,28,08,06,9.20
2015,09,28,08,07,9.20
2015,09,28,08,08,9.20
2015,09,28,08,09,9.30
2015,09,28,08,10,9.30
2015,09,28,08,11,9.30
2015,09,28,08,12,9.30
2015,09,28,08,13,9.40
2015,09,28,08,14,9.40
2015,09,28,08,15,9.50
2015,09,28,08,16,9.60
2015,09,28,08,17,9.60
2015,09,28,08,18,9.60
2015,09,28,08,19,9.70
2015,09,28,08,20,9.70
2015,09,28,08,21,9.80
2015,09,28,08,22,9.90
2015,09,28,08,23,9.90
2015,09,28,08,24,10.00
2015,09,28,08,25,10.00
2015,09,28,08,26,10.10
2015,09,28,08,27,10.10
2015,09,28,08,28,10.20
2015,09,28,08,29,10.20
2015,09,28,08,30,10.30
2015,09,28,08,31,10.30
2015,09,28,08,32,10.30
2015,09,28,08,33,10.40
2015,09,28,08,34,10.40
2015,09,28,08,35,10.50
2015,09,28,08,36,10.50
2015,09,28,08,37,10.60
2015,09,28,08,38,10.60
2015,09,28,08,39,10.70
2015,09,28,08,40,10.70
2015,09,28,08,41,10.80
2015,09,28,08,42,10.80
2015,09,28,08,43,10.80
2015,09,28,08,44,10.80
2015,09,28,08,45,10.90
2015,09,28,08,46,10.90
2015,09,28,08,47,11.00
2015,09,28,08,48,11.10
2015,09,28,08,49,11.10
2015,09,28,08,50,11.20
2015,09,28,08,51,11.20
2015,09,28,08,52,11.20
2015,09,28,08,53,11.30
2015,09,28,08,54,11.30
2015,09,28,08,55,11.40
2015,09,28,08,56,11.40
2015,09,28,08,57,11.50
2015,09,28,08,58,11.50
2015,09,28,08,59,11.60
2015,09,28,09,00,11.60
2015,09,28,09,01,11.70
2015,09,28,09,02,11.70
2015,09,28,09,03,11.70
2015,09,28,09,04,11.80
2015,09,28,09,05,11.80
2015,09,28,09,06,11.80
2015,09,28,09,07,11.90
2015,09,28,09,08,11.90
2015,09,28,09,09,11.90
2015,09,28,09,10,12.00
2015,09,28,09,11,12.00
2015,09,28,09,12,12.10
2015,09,28,09,13,12.10
2015,09,28,09,14,12.10
2015,09,28,09,15,12.10
2015,09,28,09,16,12.10
2015,09,28,09,17,12.10
2015,09,28,09,18,12.10
2015,09,28,09,19,12.10
2015,09,28,09,20,12.20
2015,09,28,09,21,12.20
2015,09,28,09,22,12.20
2015,09,28,09,23,12.20
2015,09,28,09,24,12.20
2015,09,28,09,25,12.20
2015,09,28,09,26,12.20
2015,09,28,09,27,12.30
2015,09,28,09,28,12.30
2015,09,28,09,29,12.30
2015,09,28,09,30,12.40
2015,09,28,09,31,12.40
2015,09,28,09,32,12.40
2015,09,28,09,33,12.40
2015,09,28,09,34,12.40
2015,09,28,09,35,12.40
2015,09,28,09,36,12.40
2015,09,28,09,37,12.40
2015,09,28,09,38,12.40
2015,09,28,09,39,12.40
2015,09,28,09,40,12.40
2015,09,28,09,41,12.40
2015,09,28,09,42,12.50
2015,09,28,09,43,12.50
2015,09,28,09,44,12.60
2015,09,28,09,45,12.60
2015,09,28,09,46,12.60
2015,09,28,09,47,12.60
2015,09,28,09,48,12.60
2015,09,28,09,49,12.70
2015,09,28,09,50,12.70
2015,09,28,09,51,12.70
2015,09,28,09,52,12.70
2015,09,28,09,53,12.80
2015,09,28,09,54,12.80
2015,09,28,09,55,12.80
2015,09,28,09,56,12.90
2015,09,28,09,57,13.00
2015,09,28,09,58,13.00
2015,09,28,09,59,13.10
2015,09,28,10,00,13.10
2015,09,28,10,01,13.10
2015,09,28,10,02,13.10
2015,09,28,10,03,13.20
2015,09,28,10,04,13.20
2015,09,28,10,05,13.20
2015,09,28,10,06,13.20
2015,09,28,10,07,13.20
2015,09,28,10,08,13.20
2015,09,28,10,09,13.30
2015,09,28,10,10,13.30
2015,09,28,10,11,13.30
2015,09,28,10,12,13.30
2015,09,28,10,13,13.40
2015,09,28,10,14,13.40
2015,09,28,10,15,13.40
2015,09,28,10,16,13.40
2015,09,28,10,17,13.40
2015,09,28,10,18,13.40
2015,09,28,10,19,13.40
2015,09,28,10,20,13.40
2015,09,28,10,21,13.30
2015,09,28,10,22,13.30
2015,09,28,10,23,13.40
2015,09,28,10,24,13.40
2015,09,28,10,25,13.40
2015,09,28,10,26,13.40
2015,09,28,10,27,13.40
2015,09,28,10,28,13.40
2015,09,28,10,29,13.40
2015,09,28,10,30,13.40
2015,09,28,10,31,13.40
2015,09,28,10,32,13.40
2015,09,28,10,33,13.40
2015,09,28,10,34,13.40
2015,09,28,10,35,13.50
2015,09,28,10,36,13.60
2015,09,28,10,37,13.60
2015,09,28,10,38,13.60
2015,09,28,10,39,13.60
2015,09,28,10,40,13.60
2015,09,28,10,41,13.60
2015,09,28,10,42,13.60
2015,09,28,10,43,13.60
2015,09,28,10,44,13.60
2015,09,28,10,45,13.60
2015,09,28,10,46,13.60
2015,09,28,10,47,13.60
2015,09,28,10,48,13.70
2015,09,28,10,49,13.80
2015,09,28,10,50,13.90
2015,09,28,10,51,14.00
2015,09,28,10,52,14.10
2015,09,28,10,53,14.20
2015,09,28,10,54,14.20
2015,09,28,10,55,14.20
2015,09,28,10,56,14.20
2015,09,28,10,57,14.20
2015,09,28,10,58,14.20
2015,09,28,10,59,14.20
2015,09,28,11,00,14.20
2015,09,28,11,01,14.20
2015,09,28,11,02,14.20
2015,09,28,11,03,14.20
2015,09,28,11,04,14.30
2015,09,28,11,05,14.30
2015,09,28,11,06,14.30
2015,09,28,11,07,14.30
2015,09,28,11,08,14.30
2015,09,28,11,09,14.30
2015,09,28,11,10,14.30
2015,09,28,11,11,14.30
2015,09,28,11,12,14.30
2015,09,28,11,13,14.30
2015,09,28,11,14,14.40
2015,09,28,11,15,14.40
2015,09,28,11,16,14.40
2015,09,28,11,17,14.40
2015,09,28,11,18,14.30
2015,09,28,11,19,14.30
2015,09,28,11,20,14.40
2015,09,28,11,21,14.40
2015,09,28,11,22,14.50
2015,09,28,11,23,14.60
2015,09,28,11,24,14.70
2015,09,28,11,25,14.80
2015,09,28,11,26,15.00
2015,09,28,11,27,15.00
2015,09,28,11,28,14.90
2015,09,28,11,29,14.90
2015,09,28,11,30,15.00
2015,09,28,11,31,15.00
2015,09,28,11,32,15.00
2015,09,28,11,33,15.00
2015,09,28,11,34,15.00
2015,09,28,11,35,15.00
2015,09,28,11,36,15.00
2015,09,28,11,37,15.00
2015,09,28,11,38,15.00
2015,09,28,11,39,15.00
2015,09,28,11,40,15.00
2015,09,28,11,41,15.00
2015,09,28,11,42,15.00
2015,09,28,11,43,15.00
2015,09,28,11,44,15.00
2015,09,28,11,45,15.00
2015,09,28,11,46,15.00
2015,09,28,11,47,15.00
2015,09,28,11,48,15.00
2015,09,28,11,49,15.00
2015,09,28,11,50,15.00
2015,09,28,11,51,15.10
2015,09,28,11,52,15.10
2015,09,28,11,53,15.10
2015,09,28,11,54,15.10
2015,09,28,11,55,15.20
2015,09,28,11,56,15.30
2015,09,28,11,57,15.50
2015,09,28,11,58,15.50
2015,09,28,11,59,15.60
2015,09,28,12,00,15.50
2015,09,28,12,01,15.40
2015,09,28,12,02,15.40
2015,09,28,12,03,15.30
2015,09,28,12,04,15.40
2015,09,28,12,05,15.50
2015,09,28,12,06,15.60
2015,09,28,12,07,15.70
2015,09,28,12,08,15.80
2015,09,28,12,09,15.90
2015,09,28,12,10,15.90
2015,09,28,12,11,15.90
2015,09,28,12,12,15.90
2015,09,28,12,13,15.80
2015,09,28,12,14,15.70
2015,09,28,12,15,15.70
2015,09,28,12,16,15.70
2015,09,28,12,17,15.70
2015,09,28,12,18,15.70
2015,09,28,12,19,15.80
2015,09,28,12,20,15.80
2015,09,28,12,21,15.80
2015,09,28,12,22,15.80
2015,09,28,12,23,15.80
2015,09,28,12,24,15.90
2015,09,28,12,25,15.80
2015,09,28,12,26,15.80
2015,09,28,12,27,15.80
2015,09,28,12,28,15.80
2015,09,28,12,29,15.80
2015,09,28,12,30,15.70
2015,09,28,12,31,15.60
2015,09,28,12,32,15.70
2015,09,28,12,33,15.80
2015,09,28,12,34,15.80
2015,09,28,12,35,15.90
2015,09,28,12,36,15.90
2015,09,28,12,37,15.90
2015,09,28,12,38,16.00
2015,09,28,12,39,16.00
2015,09,28,12,40,16.00
2015,09,28,12,41,16.00
2015,09,28,12,42,16.00
2015,09,28,12,43,16.10
2015,09,28,12,44,16.10
2015,09,28,12,45,16.10
2015,09,28,12,46,16.20
2015,09,28,12,47,16.20
2015,09,28,12,48,16.20
2015,09,28,12,49,16.30
2015,09,28,12,50,16.30
2015,09,28,12,51,16.20
2015,09,28,12,52,16.10
2015,09,28,12,53,16.10
2015,09,28,12,54,16.20
2015,09,28,12,55,16.20
2015,09,28,12,56,16.10
2015,09,28,12,57,16.10
2015,09,28,12,58,16.10
2015,09,28,12,59,16.20
2015,09,28,13,00,16.20
2015,09,28,13,01,16.30
2015,09,28,13,02,16.30
2015,09,28,13,03,16.30
2015,09,28,13,04,16.30
2015,09,28,13,05,16.30
2015,09,28,13,06,16.30
2015,09,28,13,07,16.30
2015,09,28,13,08,16.30
2015,09,28,13,09,16.30
2015,09,28,13,10,16.30
2015,09,28,13,11,16.40
2015,09,28,13,12,16.50
2015,09,28,13,13,16.60
2015,09,28,13,14,16.70
2015,09,28,13,15,16.70
2015,09,28,13,16,16.70
2015,09,28,13,17,16.60
2015,09,28,13,18,16.60
2015,09,28,13,19,16.60
2015,09,28,13,20,16.50
2015,09,28,13,21,16.40
2015,09,28,13,22,16.50
2015,09,28,13,23,16.50
2015,09,28,13,24,16.60
2015,09,28,13,25,16.70
2015,09,28,13,26,16.70
2015,09,28,13,27,16.80
2015,09,28,13,28,16.80
2015,09,28,13,29,16.90
2015,09,28,13,30,17.00
2015,09,28,13,31,17.00
2015,09,28,13,32,17.00
2015,09,28,13,33,16.90
2015,09,28,13,34,17.00
2015,09,28,13,35,17.10
2015,09,28,13,36,17.10
2015,09,28,13,37,17.10
2015,09,28,13,38,17.10
2015,09,28,13,39,17.00
2015,09,28,13,40,17.00
2015,09,28,13,41,17.00
2015,09,28,13,42,17.00
2015,09,28,13,43,17.10
2015,09,28,13,44,17.10
2015,09,28,13,45,17.20
2015,09,28,13,46,17.20
2015,09,28,13,47,17.20
2015,09,28,13,48,17.20
2015,09,28,13,49,17.20
2015,09,28,13,50,17.20
2015,09,28,13,51,17.10
2015,09,28,13,52,17.10
2015,09,28,13,53,17.10
2015,09,28,13,54,17.20
2015,09,28,13,55,17.20
2015,09,28,13,56,17.20
2015,09,28,13,57,17.20
2015,09,28,13,58,17.20
2015,09,28,13,59,17.20
2015,09,28,14,00,17.20
2015,09,28,14,01,17.20
2015,09,28,14,02,17.10
2015,09,28,14,03,17.20
2015,09,28,14,04,17.20
2015,09,28,14,05,17.20
2015,09,28,14,06,17.20
2015,09,28,14,07,17.20
2015,09,28,14,08,17.30
2015,09,28,14,09,17.40
2015,09,28,14,10,17.50
2015,09,28,14,11,17.60
2015,09,28,14,12,17.60
2015,09,28,14,13,17.60
2015,09,28,14,14,17.60
2015,09,28,14,15,17.70
2015,09,28,14,16,17.70
2015,09,28,14,17,17.60
2015,09,28,14,18,17.70
2015,09,28,14,19,17.90
2015,09,28,14,20,18.00
2015,09,28,14,21,18.00
2015,09,28,14,22,18.00
2015,09,28,14,23,18.00
2015,09,28,14,24,17.90
2015,09,28,14,25,18.00
2015,09,28,14,26,18.00
2015,09,28,14,27,18.00
2015,09,28,14,28,18.10
2015,09,28,14,29,18.20
2015,09,28,14,30,18.20
2015,09,28,14,31,18.30
2015,09,28,14,32,18.30
2015,09,28,14,33,18.40
2015,09,28,14,34,18.40
2015,09,28,14,35,18.40
2015,09,28,14,36,18.40
2015,09,28,14,37,18.30
2015,09,28,14,38,18.30
2015,09,28,14,39,18.20
2015,09,28,14,40,18.20
2015,09,28,14,41,18.20
2015,09,28,14,42,18.20
2015,09,28,14,43,18.20
2015,09,28,14,44,18.20
2015,09,28,14,45,18.20
2015,09,28,14,46,18.00
2015,09,28,14,47,17.80
2015,09,28,14,48,17.70
2015,09,28,14,49,17.60
2015,09,28,14,50,17.60
2015,09,28,14,51,17.60
2015,09,28,14,52,17.70
2015,09,28,14,53,17.70
2015,09,28,14,54,17.60
2015,09,28,14,55,17.60
2015,09,28,14,56,17.70
2015,09,28,14,57,17.70
2015,09,28,14,58,17.70
2015,09,28,14,59,17.70
2015,09,28,15,00,17.60
2015,09,28,15,01,17.40
2015,09,28,15,02,17.30
2015,09,28,15,03,17.20
2015,09,28,15,04,17.10
2015,09,28,15,05,17.10
2015,09,28,15,06,17.20
2015,09,28,15,07,17.20
2015,09,28,15,08,17.20
2015,09,28,15,09,17.20
2015,09,28,15,10,17.10
2015,09,28,15,11,17.10
2015,09,28,15,12,17.10
2015,09,28,15,13,17.00
2015,09,28,15,14,16.90
2015,09,28,15,15,16.90
2015,09,28,15,16,16.90
2015,09,28,15,17,16.90
2015,09,28,15,18,16.90
2015,09,28,15,19,16.90
2015,09,28,15,20,16.90
2015,09,28,15,21,16.90
2015,09,28,15,22,16.80
2015,09,28,15,23,16.90
2015,09,28,15,24,16.90
2015,09,28,15,25,16.90
2015,09,28,15,26,16.90
2015,09,28,15,27,17.00
2015,09,28,15,28,17.00
2015,09,28,15,29,17.00
2015,09,28,15,30,17.00
2015,09,28,15,31,17.10
2015,09,28,15,32,17.10
2015,09,28,15,33,17.20
2015,09,28,15,34,17.10
2015,09,28,15,35,17.10
2015,09,28,15,36,17.00
2015,09,28,15,37,17.10
2015,09,28,15,38,17.10
2015,09,28,15,39,17.20
2015,09,28,15,40,17.30
2015,09,28,15,41,17.30
2015,09,28,15,42,17.30
2015,09,28,15,43,17.20
2015,09,28,15,44,17.10
2015,09,28,15,45,17.10
2015,09,28,15,46,17.10
2015,09,28,15,47,17.20
2015,09,28,15,48,17.10
2015,09,28,15,49,17.00
2015,09,28,15,50,16.90
2015,09,28,15,51,16.90
2015,09,28,15,52,17.00
2015,09,28,15,53,17.10
2015,09,28,15,54,17.20
2015,09,28,15,55,17.30
2015,09,28,15,56,17.40
2015,09,28,15,57,17.40
2015,09,28,15,58,17.50
2015,09,28,15,59,17.50
2015,09,28,16,00,17.60
2015,09,28,16,01,17.70
2015,09,28,16,02,17.60
2015,09,28,16,03,17.50
2015,09,28,16,04,17.40
2015,09,28,16,05,17.40
2015,09,28,16,06,17.30
2015,09,28,16,07,17.30
2015,09,28,16,08,17.20
2015,09,28,16,09,17.20
2015,09,28,16,10,17.10
2015,09,28,16,11,17.00
2015,09,28,16,12,17.00
2015,09,28,16,13,17.00
2015,09,28,16,14,17.10
2015,09,28,16,15,17.20
2015,09,28,16,16,17.20
2015,09,28,16,17,17.30
2015,09,28,16,18,17.30
2015,09,28,16,19,17.40
2015,09,28,16,20,17.50
2015,09,28,16,21,17.50
2015,09,28,16,22,17.50
2015,09,28,16,23,17.60
2015,09,28,16,24,17.60
2015,09,28,16,25,17.70
2015,09,28,16,26,17.80
2015,09,28,16,27,17.70
2015,09,28,16,28,17.70
2015,09,28,16,29,17.70
2015,09,28,16,30,17.70
2015,09,28,16,31,17.60
2015,09,28,16,32,17.60
2015,09,28,16,33,17.60
2015,09,28,16,34,17.60
2015,09,28,16,35,17.60
2015,09,28,16,36,17.50
2015,09,28,16,37,17.50
2015,09,28,16,38,17.60
2015,09,28,16,39,17.60
2015,09,28,16,40,17.70
2015,09,28,16,41,17.70
2015,09,28,16,42,17.80
2015,09,28,16,43,17.80
2015,09,28,16,44,17.90
2015,09,28,16,45,18.00
2015,09,28,16,46,18.00
2015,09,28,16,47,18.00
2015,09,28,16,48,18.10
2015,09,28,16,49,18.10
2015,09,28,16,50,18.10
2015,09,28,16,51,18.10
2015,09,28,16,52,18.20
2015,09,28,16,53,18.20
2015,09,28,16,54,18.30
2015,09,28,16,55,18.30
2015,09,28,16,56,18.30
2015,09,28,16,57,18.30
2015,09,28,16,58,18.30
2015,09,28,16,59,18.40
2015,09,28,17,00,18.40
2015,09,28,17,01,18.40
2015,09,28,17,02,18.40
2015,09,28,17,03,18.30
2015,09,28,17,04,18.30
2015,09,28,17,05,18.30
2015,09,28,17,06,18.30
2015,09,28,17,07,18.20
2015,09,28,17,08,18.20
2015,09,28,17,09,18.10
2015,09,28,17,10,18.10
2015,09,28,17,11,18.10
2015,09,28,17,12,18.10
2015,09,28,17,13,18.10
2015,09,28,17,14,18.10
2015,09,28,17,15,18.10
2015,09,28,17,16,18.00
2015,09,28,17,17,18.00
2015,09,28,17,18,18.00
2015,09,28,17,19,17.90
2015,09,28,17,20,17.90
2015,09,28,17,21,17.90
2015,09,28,17,22,18.00
2015,09,28,17,23,18.00
2015,09,28,17,24,18.00
2015,09,28,17,25,18.00
2015,09,28,17,26,18.00
2015,09,28,17,27,17.90
2015,09,28,17,28,17.90
2015,09,28,17,29,17.90
2015,09,28,17,30,17.90
2015,09,28,17,31,17.90
2015,09,28,17,32,17.90
2015,09,28,17,33,18.00
2015,09,28,17,34,18.00
2015,09,28,17,35,18.00
2015,09,28,17,36,18.10
2015,09,28,17,37,18.10
2015,09,28,17,38,18.10
2015,09,28,17,39,18.10